Regional Weather Roundup
Issued by NWS

Home | Current Version | Previous Version | Text Only | Print | Product List | Glossary On
Versions: 1 2 3 4 5 6 7 8 9 10 11 12 13 14 15 16 17 18 19 20 21 22 23 24 25 26 27 28 29 30 31 32 33 34 35 36 37 38 39 40 41 42 43 44 45 46 47 48 49 50
000
ASUS45 KBOU 231107
RWRCO

WEATHER ROUNDUP FOR COLORADO
NATIONAL WEATHER SERVICE DENVER/BOULDER CO
500 AM MDT MON OCT 23 2017

NOTE: "FAIR" INDICATES FEW OR NO CLOUDS BELOW 12000 FEET WITH NO
SIGNIFICANT WEATHER AND/OR OBSTRUCTIONS TO VISIBILITY.

COZ001>005-013-030-031-231200-
...NORTHWEST COLORADO...

CITY           SKY/WX    TMP DP  RH WIND       PRES   REMARKS
CRAIG          CLOUDY    45  31  58 CALM      30.44R
HAYDEN         CLOUDY    45  30  55 SW6       30.44S
MEEKER         CLOUDY    38  31  76 CALM      30.45S
RABBIT EARS PA CLOUDY    32  27  80 W16G24    30.49F WCI  21
STEAMBOAT SPGS CLOUDY    46  29  51 SE5       30.43S
WALDEN         NOT AVBL
$$

COZ006>008-011-231200-
...WEST CENTRAL VALLEYS...

CITY           SKY/WX    TMP DP  RH WIND       PRES   REMARKS
GRAND JUNCTION FAIR      42  25  50 E13       30.41S
MONTROSE       FAIR      35  23  61 SE8       30.46F WCI  29
EAGLE          MOCLDY    39  28  64 SE7       30.47F
RIFLE          FAIR      37  30  75 S3        30.47R
DELTA          FAIR      37  22  56 N5        30.46R
NUCLA          FAIR      37  19  48 CALM      30.48F
$$

COZ017>023-064>068-231200-
...SOUTHWEST COLORADO...

CITY           SKY/WX    TMP DP  RH WIND       PRES   REMARKS
DURANGO        FAIR      32  20  61 NE6       30.41S WCI  26
CORTEZ         FAIR      32  20  61 E7        30.43S WCI  26
PAGOSA SPRINGS FAIR      31  20  63 CALM      30.44S
TELLURIDE      FAIR      37  19  49 SE5       30.58S
WOLF CREEK PAS FAIR      37  21  52 W6        30.63S
$$

COZ009-010-012-014-032>034-037-058>063-231200-
...CENTRAL COLORADO...

CITY           SKY/WX    TMP DP  RH WIND       PRES   REMARKS
ASPEN          CLOUDY    37  30  75 CALM      30.50R
BUENA VISTA    FAIR      49  21  33 W5G13     30.38R
COPPER MTN     CLOUDY    34  28  80 MISG      30.59S
BERTHOUD PASS  CLOUDY    27  18  69 NW53G68   30.47F WCI   6
COTTONWOOD PAS FAIR      46  27  46 W41G59    30.40R
GUNNISON       FAIR      28  21  75 SW3       30.50F
KREMMLING      CLOUDY    50  27  40 W9        30.44S
LEADVILLE      CLOUDY    38  21  50 N9        30.51S
MONARCH PASS   FAIR      30  21  69 W43G51    30.62F WCI  13
SALIDA         FAIR      53  24  32 NW10      30.41F
SUNLIGHT       CLOUDY    32  21  64 SW9G17    30.61S WCI  24
WILKERSON PASS FAIR      34  23  64 NW10G18   30.49F WCI  26
$$

COZ069>075-231200-
...SAN LUIS VALLEY/SANGRE DE CRISTO MOUNTAINS...

CITY           SKY/WX    TMP DP  RH WIND       PRES   REMARKS
ALAMOSA        FAIR      26  19  74 SW7       30.40S WCI  18
DEL NORTE      FAIR      31  20  61 W10       30.44R WCI  23
LA VETA PASS   FAIR      39  21  48 S26G36    30.56S
SAGUACHE       FAIR      36  23  60 N9        30.42R
$$

COZ035-036-038>040-231200-
...NORTHERN COLORADO FRONT RANGE...

CITY           SKY/WX    TMP DP  RH WIND       PRES   REMARKS
DENVER INTL AP MOCLDY    56  26  31 CALM      30.20R
DMNS CITY PARK   N/A     62  26  25 N17       30.20F
AURORA         MOCLDY    59  28  31 NW17G23   30.21S
FRONT RANGE AP FAIR      52  30  43 NW7       30.22S
ERIE MUNI ARPT FAIR      63  26  24 NW20G29   30.23F
BOULDER MUN AP FAIR      61  28  29 NW6       30.18S
CENTENNIAL     FAIR      57  27  31 NW21      30.23R
BROOMFIELD     FAIR      59  28  31 CALM      30.22S
FORT COLLINS   FAIR      61  30  31 NW21G28   30.19R
LONGMONT       MOCLDY    65  28  24 SW10G24   30.18F
$$

COZ041-046-047-076>085-087-088-231200-
...PIKES PEAK/PALMER DIVIDE AND SOUTHERN FOOTHILLS...

CITY           SKY/WX    TMP DP  RH WIND       PRES   REMARKS
COLO. SPRINGS  MOCLDY    50  28  42 NE8       30.26R
A. F. ACADEMY  FAIR      49  25  38 NE12      30.27R
SCHRIEVER AFB  FAIR      47  26  44 N8        30.26R
CHEYENNE MTN   FAIR      57  23  26 NW13      30.23R
ELLICOTT         N/A      1   1 100 CALM      30.25R
FALCON         FAIR      49  24  36 NW8       30.29R
FORT CARSON    FAIR      51  26  38 S8        30.23R
LIMON          FAIR      48  30  49 N13       30.22R
MONUMENT HILL  FAIR      43  27  52 N3        30.31R
CANON CITY     CLEAR     50  27  40 W10       30.24R
WALSENBURG     NOT AVBL
TRINIDAD       FAIR      50  25  37 W8        30.22R
$$

COZ042>045-048>051-090-091-231200-
...NORTHEAST COLORADO...

CITY           SKY/WX    TMP DP  RH WIND       PRES   REMARKS
GREELEY ARPT   FAIR      59  32  36 N25       30.19R
AKRON          FAIR      48  32  53 N32G40    30.22R
BURLINGTON     FAIR      51  32  48 NW10      30.15R
WRAY           NOT AVBL
YUMA           FAIR      50  32  50 N21G28    30.20R
STERLING       CLOUDY    48  34  57 N25G35    30.23R
HOLYOKE        FAIR      54  36  50 N30G36    30.21R
FORT MORGAN    FAIR      49  31  49 N22G31    30.22R
$$

COZ086-089-092>099-231200-
...SOUTHEAST COLORADO...

CITY           SKY/WX    TMP DP  RH WIND       PRES   REMARKS
PUEBLO         FAIR      52  26  36 VRB5      30.18R
LA JUNTA       FAIR      44  30  57 SW6       30.16R
LAMAR          FAIR      34  29  82 S7        30.14R WCI  28
SPRINGFIELD      N/A     51  27  39 NW12      30.13R
$$



USA.gov is the U.S. government's official web portal to all federal, state and local government web resources and services.